Location: Unnamed Road
(35.9029°N, 51.9749°E)
Time: 04:30:49
(UTC+04:30)

LightSail 2 - Visible Passes

Search period start: 02 April 2020 00:00
Search period end: 12 April 2020 00:00
Orbit: 693 x 726 km, 24.0° (Epoch: 31 March)

Date Brightness Start Highest point End Pass type
(mag) Time Alt. Az. Time Alt. Az. Time Alt. Az.
04 Apr 7.4 06:14:24 10° SSW 06:16:40 13° SSE 06:18:56 10° SE visible
05 Apr 7.5 05:17:14 10° SSE 05:17:39 10° SSE 05:18:06 10° SSE visible
06 Apr 7.1 06:00:09 10° SSW 06:03:17 17° S 06:06:25 10° SE visible
07 Apr 7.1 05:03:06 13° S 05:04:14 14° SSE 05:06:50 10° SE visible
08 Apr 6.9 05:46:20 10° SW 05:49:53 19° S 05:53:25 10° SE visible
09 Apr 6.9 04:50:35 17° S 04:50:48 17° S 04:54:05 10° SE visible
10 Apr 6.7 05:33:44 14° SW 05:36:27 21° S 05:40:08 10° SE visible
11 Apr 6.8 04:38:01 19° SSE 04:38:01 19° SSE 04:40:57 10° SE visible
